#timestamp,LO_Frequency,Hit,StdDev 
1514696415.8,286046995.1,Y
1514696435.6,286046997.4,P
1514696455.4,286046997.2,N
1514696475.3,286046997.1,N
1514696495.1,286046994.9,Y
1514696515.9,286046999.2,P
1514696535.7,286046996.5,P
1514696555.5,286046994.9,P
1514696575.4,286046993.9,Y
1514696595.2,286046997.1,P
1514696615.0,286046999.6,P
1514696616.0,286046999.6,N
1514696635.8,286046998.3,N
1514696655.6,286046998.8,N
1514696675.5,286046999.3,N
1514696695.3,286046995.6,Y
1514696715.1,286046997.3,P
1514696735.9,286046995.9,P
1514696755.7,286046996.0,P
1514696775.6,286046993.7,Y
1514696795.4,286046999.1,P
1514696815.2,286046997.0,N
1514696835.1,286046997.0,P
1514696836.0,286046997.0,Y
1514696855.8,286046998.6,P
1514696875.7,286046999.4,N
1514696895.5,286046998.9,N
1514696915.3,286046997.4,Y
1514696935.2,286046999.1,P
1514696955.0,286046998.7,P
1514696955.9,286046998.7,P
1514696975.8,286046998.2,Y
1514696995.6,286047000.7,P
1514697015.4,286047000.3,N
1514697035.3,286047002.0,N
1514697055.1,286047002.0,N
1514697075.9,286047003.7,Y
1514697095.7,286047003.2,P
1514697115.5,286047005.4,P
1514697135.4,286047006.3,P
1514697155.2,286047008.2,Y
1514697175.1,286047004.9,P
1514697176.0,286047004.9,P
1514697195.8,286047003.4,P
1514697215.6,286047003.7,Y
1514697235.5,286047000.3,P
1514697255.3,286047000.1,N
1514697275.2,286047000.1,N
1514697295.9,286047002.3,N
1514697315.7,286047002.4,N
1514697335.6,286047002.6,N
1514697355.4,286047002.7,N
1514697375.2,286046999.9,N
1514697395.1,286047001.9,N
1514697396.0,286047001.9,N
1514697415.8,286047000.1,N
1514697435.7,286047002.6,N
1514697455.5,286047002.7,N
1514697475.3,286047000.0,N
1514697495.2,286046998.6,N
1514697515.0,286047000.2,N
1514697515.9,286047000.2,N
1514697535.8,286047002.7,N
1514697555.6,286047002.3,N
1514697575.4,286047002.2,N
1514697595.3,286047004.1,N
1514697615.1,286047003.8,N
1514697635.8,286047003.8,N
1514697655.7,286047006.0,Y
1514697675.5,286047001.3,P
1514697695.4,286047002.0,P
1514697715.2,286047002.1,P
1514697735.0,286047000.3,N
1514697735.9,286047000.3,N
1514697755.8,286047001.2,N
1514697775.6,286047000.5,N
1514697795.5,286047000.7,N
1514697815.3,286047000.9,N
1514697835.1,286047000.8,N
1514697855.9,286047001.2,N
1514697875.7,286046999.9,N
1514697895.6,286047000.0,N
1514697915.4,286046999.7,N
1514697935.2,286047001.8,N
1514697955.1,286047002.2,N
1514697956.0,286047002.2,N
1514697975.8,286047004.3,Y
1514697995.6,286046999.9,P
1514698015.5,286046999.8,N
1514698035.3,286047000.2,N
1514698055.2,286047002.1,Y
1514698075.9,286047001.9,P
1514698095.7,286047004.2,P
1514698115.6,286047002.2,N
1514698135.4,286047003.7,N
1514698155.3,286047003.8,N
1514698175.1,286047001.3,N
1514698176.0,286047001.3,N
1514698195.8,286047002.4,N
1514698215.7,286047001.3,N
1514698235.5,286047004.0,Y
1514698255.3,286046999.6,P
1514698275.2,286047001.1,N
1514698295.0,286047000.7,N
1514698295.9,286047000.7,N
1514698315.8,286047000.8,N
1514698335.6,286047000.4,N
1514698355.4,286046998.9,N
1514698375.3,286046999.2,N
1514698395.1,286046999.0,N
1514698415.9,286047000.1,N
1514698435.7,286047000.6,N
1514698455.5,286047001.2,N
1514698475.4,286046999.8,N
1514698495.2,286046999.7,N
1514698515.0,286047000.0,N
1514698515.9,286047000.0,N
1514698535.8,286046998.3,N
1514698555.6,286047001.1,N
1514698575.5,286046999.8,N
1514698595.3,286047000.0,N
1514698615.1,286047001.5,N
1514698635.9,286047002.6,N
1514698655.7,286046998.5,N
1514698675.5,286047000.2,N
1514698695.4,286047000.0,N
1514698715.2,286047002.8,N
1514698735.1,286047000.6,N
1514698736.0,286047000.6,N
1514698755.8,286046999.9,N
1514698775.6,286046999.8,N
1514698795.5,286047000.1,N
1514698815.3,286047000.4,N
1514698835.2,286047001.2,N
1514698855.9,286047000.6,N
1514698875.7,286047000.9,N
1514698895.6,286047000.7,N
1514698915.4,286047000.0,N
1514698935.2,286047001.1,N
1514698955.1,286047000.8,N
1514698956.0,286047000.8,N
1514698975.8,286047002.4,N
1514698995.7,286047000.7,N
1514699015.5,286047001.1,N
1514699035.3,286047000.5,N
1514699055.2,286047000.5,N
1514699075.0,286047004.4,Y
1514699075.9,286047004.4,P
1514699095.8,286047001.6,N
1514699115.6,286047002.2,N
1514699135.4,286047001.5,N
1514699155.3,286047003.9,Y
1514699175.1,286047002.6,P
1514699195.9,286047002.1,P
1514699215.7,286047002.0,P
1514699235.5,286047001.9,Y
1514699255.4,286047000.4,P
1514699275.2,286046999.4,N
1514699295.1,286046995.9,P
1514699296.0,286046995.9,N
1514699315.8,286046994.8,N
1514699335.6,286046994.5,N
1514699355.5,286046991.9,N
1514699375.3,286046990.4,N
1514699395.2,286046990.6,N
1514699415.9,286046988.6,N
1514699435.7,286046984.1,Y
1514699455.6,286046988.8,P
1514699475.4,286046989.5,P
1514699495.2,286046989.5,P
1514699515.1,286046991.6,Y
1514699516.0,286046991.6,P
1514699535.8,286047002.6,P
1514699555.7,286047004.1,N
1514699575.5,286047004.8,N
1514699595.3,286047008.0,N
1514699615.2,286047009.9,N
1514699635.0,286047013.6,N
1514699635.9,286047013.6,N
1514699655.8,286047011.3,N
1514699675.6,286047013.9,N
1514699695.4,286047014.0,N
1514699715.3,286047011.0,N
1514699735.1,286047012.8,N
1514699755.8,286047013.3,N
1514699775.7,286047009.8,N
1514699795.5,286047009.8,N
1514699815.4,286047012.2,N
1514699835.2,286047009.6,N
1514699855.0,286047009.3,N
1514699855.9,286047009.3,N
1514699875.8,286047012.4,N
1514699895.6,286047011.4,N
1514699915.5,286047009.9,N
1514699935.3,286047012.0,N
1514699955.1,286047012.1,N
1514699975.9,286047011.7,N
1514699995.7,286047012.2,N
